When you browse on this site, cookies collect data to enhance your experience and personalize the content and advertising you see.
Visit our Privacy Policy to learn more. By continuing to use the site, you agree to this use of cookies and data.
  • Em Portugal
  • Lista de países
  • Para 7 dias
  • Temperatura da água
  • Mapas de satélite
  • Mapa do tempo
  • Widgets de tempo
  • user-avatar
    Iniciar Sessão

    Previsão horária em Dyatlovschina

    Hoje, 19 Junho, Quarta-feira

    Tempo Temperatura Precipitação Vento Pressão Humidade
    00:00 +15°C° 0 mm 2 m/s 750 mmHg 81%
    01:00 +15°C° 0 mm 2 m/s 750 mmHg 83%
    02:00 +15°C° 0 mm 2 m/s 750 mmHg 84%
    03:00 +15°C° 0 mm 2 m/s 750 mmHg 85%
    04:00 +15°C° 0 mm 2 m/s 750 mmHg 85%
    05:00 +15°C° 0 mm 2 m/s 751 mmHg 86%
    06:00 +18°C° 0 mm 1 m/s 751 mmHg 79%
    07:00 +20°C° 0 mm 1 m/s 751 mmHg 73%
    08:00 +22°C° 0 mm 1 m/s 751 mmHg 67%
    09:00 +24°C° 0 mm 1 m/s 751 mmHg 62%
    10:00 +25°C° 0 mm 1 m/s 751 mmHg 57%
    11:00 +26°C° 0 mm 1 m/s 751 mmHg 51%
    12:00 +27°C° 0 mm 1 m/s 750 mmHg 50%
    13:00 +27°C° 0 mm 2 m/s 750 mmHg 48%
    14:00 +28°C° 0 mm 2 m/s 750 mmHg 46%
    15:00 +27°C° 0 mm 2 m/s 750 mmHg 50%
    16:00 +27°C° 0 mm 2 m/s 749 mmHg 54%
    17:00 +26°C° 0 mm 2 m/s 749 mmHg 57%
    18:00 +25°C° 0 mm 2 m/s 749 mmHg 64%
    19:00 +23°C° 0 mm 2 m/s 749 mmHg 70%
    20:00 +21°C° 0 mm 2 m/s 749 mmHg 76%
    21:00 +20°C° 0 mm 2 m/s 749 mmHg 78%
    22:00 +19°C° 0 mm 2 m/s 749 mmHg 80%
    23:00 +18°C° 0 mm 2 m/s 749 mmHg 82%

    Amanhã, 20 Junho, Quinta-feira

    Tempo Temperatura Precipitação Vento Pressão Humidade
    00:00 +17°C° 0 mm 2 m/s 749 mmHg 83%
    01:00 +17°C° 0 mm 2 m/s 749 mmHg 85%
    02:00 +16°C° 0 mm 2 m/s 749 mmHg 86%
    03:00 +17°C° 0 mm 2 m/s 749 mmHg 86%
    04:00 +17°C° 0 mm 2 m/s 749 mmHg 87%
    05:00 +17°C° 0 mm 2 m/s 749 mmHg 87%
    06:00 +19°C° 0 mm 2 m/s 749 mmHg 82%
    07:00 +20°C° 0 mm 2 m/s 749 mmHg 77%
    08:00 +23°C° 0 mm 2 m/s 749 mmHg 73%
    09:00 +24°C° 0 mm 3 m/s 749 mmHg 68%
    10:00 +26°C° 0 mm 3 m/s 749 mmHg 64%
    11:00 +27°C° 0 mm 3 m/s 749 mmHg 59%
    12:00 +27°C° 0.1 mm 4 m/s 749 mmHg 59%
    13:00 +28°C° 0.1 mm 4 m/s 748 mmHg 59%
    14:00 +28°C° 0.1 mm 4 m/s 748 mmHg 58%
    15:00 +28°C° 0.2 mm 4 m/s 748 mmHg 61%
    16:00 +27°C° 0.2 mm 3 m/s 748 mmHg 64%
    17:00 +27°C° 0.2 mm 3 m/s 748 mmHg 67%
    18:00 +26°C° 0.1 mm 3 m/s 748 mmHg 72%
    19:00 +24°C° 0.1 mm 3 m/s 748 mmHg 78%
    20:00 +22°C° 0.1 mm 3 m/s 748 mmHg 84%
    21:00 +22°C° 0.1 mm 3 m/s 748 mmHg 86%
    22:00 +21°C° 0.1 mm 3 m/s 748 mmHg 89%
    23:00 +20°C° 0.1 mm 3 m/s 748 mmHg 92%

    Depois de amanhã, 21 Junho, Sexta-feira

    Tempo Temperatura Precipitação Vento Pressão Humidade
    00:00 +20°C° 0.1 mm 3 m/s 748 mmHg 93%
    01:00 +20°C° 0.1 mm 3 m/s 748 mmHg 94%
    02:00 +19°C° 0.1 mm 3 m/s 748 mmHg 94%
    03:00 +19°C° 0.3 mm 3 m/s 748 mmHg 94%
    04:00 +19°C° 0.3 mm 3 m/s 748 mmHg 94%
    05:00 +20°C° 0.3 mm 3 m/s 748 mmHg 93%
    06:00 +21°C° 0 mm 3 m/s 748 mmHg 89%
    07:00 +22°C° 0 mm 4 m/s 748 mmHg 85%
    08:00 +23°C° 0 mm 4 m/s 748 mmHg 81%
    09:00 +26°C° 0 mm 4 m/s 748 mmHg 74%
    10:00 +27°C° 0 mm 5 m/s 748 mmHg 67%
    11:00 +28°C° 0 mm 5 m/s 748 mmHg 61%
    12:00 +29°C° 0.1 mm 5 m/s 748 mmHg 60%
    13:00 +29°C° 0.1 mm 5 m/s 748 mmHg 59%
    14:00 +30°C° 0.1 mm 5 m/s 748 mmHg 58%
    15:00 +29°C° 0.4 mm 4 m/s 748 mmHg 62%
    16:00 +29°C° 0.4 mm 4 m/s 747 mmHg 66%
    17:00 +29°C° 0.4 mm 3 m/s 747 mmHg 70%
    18:00 +27°C° 0.5 mm 3 m/s 747 mmHg 74%
    19:00 +26°C° 0.5 mm 3 m/s 747 mmHg 79%
    20:00 +25°C° 0.5 mm 3 m/s 747 mmHg 84%
    21:00 +24°C° 0 mm 3 m/s 747 mmHg 86%
    22:00 +22°C° 0 mm 3 m/s 748 mmHg 88%
    23:00 +22°C° 0 mm 3 m/s 748 mmHg 90%

    22 Junho, Sábado

    Tempo Temperatura Precipitação Vento Pressão Humidade
    00:00 +21°C° 0 mm 3 m/s 748 mmHg 91%
    01:00 +21°C° 0 mm 3 m/s 748 mmHg 93%
    02:00 +20°C° 0 mm 3 m/s 748 mmHg 94%
    03:00 +20°C° 0.2 mm 3 m/s 748 mmHg 94%
    04:00 +21°C° 0.2 mm 2 m/s 748 mmHg 94%
    05:00 +21°C° 0.2 mm 2 m/s 748 mmHg 94%
    06:00 +23°C° 0.5 mm 2 m/s 748 mmHg 91%
    07:00 +24°C° 0.5 mm 2 m/s 749 mmHg 89%
    08:00 +25°C° 0.5 mm 2 m/s 749 mmHg 87%
    09:00 +25°C° 2.1 mm 2 m/s 749 mmHg 83%
    10:00 +26°C° 2.1 mm 2 m/s 749 mmHg 78%
    11:00 +27°C° 2.1 mm 2 m/s 749 mmHg 74%
    12:00 +27°C° 1.2 mm 2 m/s 749 mmHg 75%
    13:00 +27°C° 1.2 mm 2 m/s 749 mmHg 76%
    14:00 +27°C° 1.2 mm 2 m/s 749 mmHg 77%
    15:00 +26°C° 0.3 mm 2 m/s 749 mmHg 78%
    16:00 +26°C° 0.3 mm 2 m/s 749 mmHg 79%
    17:00 +26°C° 0.3 mm 2 m/s 749 mmHg 80%
    18:00 +25°C° 0.2 mm 2 m/s 749 mmHg 83%
    19:00 +24°C° 0.2 mm 2 m/s 749 mmHg 86%
    20:00 +23°C° 0.2 mm 2 m/s 749 mmHg 89%
    21:00 +21°C° 0 mm 2 m/s 750 mmHg 90%
    22:00 +21°C° 0 mm 2 m/s 750 mmHg 91%
    23:00 +20°C° 0 mm 2 m/s 750 mmHg 92%

    23 Junho, Domingo

    Tempo Temperatura Precipitação Vento Pressão Humidade
    00:00 +20°C° 0.1 mm 2 m/s 750 mmHg 92%
    01:00 +19°C° 0.1 mm 2 m/s 750 mmHg 93%
    02:00 +19°C° 0.1 mm 2 m/s 750 mmHg 94%
    03:00 +20°C° 0.2 mm 2 m/s 748 mmHg 92%
    04:00 +20°C° 0.2 mm 2 m/s 748 mmHg 92%
    05:00 +20°C° 0.2 mm 2 m/s 748 mmHg 92%
    06:00 +21°C° 0.2 mm 3 m/s 748 mmHg 88%
    07:00 +24°C° 0.2 mm 3 m/s 749 mmHg 84%
    08:00 +25°C° 0.2 mm 4 m/s 749 mmHg 80%
    09:00 +27°C° 0.7 mm 4 m/s 749 mmHg 74%
    10:00 +28°C° 0.7 mm 5 m/s 748 mmHg 69%
    11:00 +29°C° 0.7 mm 6 m/s 748 mmHg 64%
    12:00 +29°C° 0.2 mm 5 m/s 748 mmHg 64%
    13:00 +29°C° 0.2 mm 5 m/s 748 mmHg 63%
    14:00 +29°C° 0.2 mm 5 m/s 747 mmHg 63%
    15:00 +29°C° 0.2 mm 5 m/s 747 mmHg 64%
    16:00 +29°C° 0.2 mm 5 m/s 747 mmHg 64%
    17:00 +30°C° 0.2 mm 4 m/s 747 mmHg 65%
    18:00 +28°C° 0.2 mm 4 m/s 747 mmHg 69%
    19:00 +27°C° 0.2 mm 4 m/s 747 mmHg 74%
    20:00 +25°C° 0.2 mm 4 m/s 746 mmHg 78%
    21:00 +23°C° 0.1 mm 4 m/s 747 mmHg 80%
    22:00 +22°C° 0.1 mm 3 m/s 747 mmHg 82%
    23:00 +21°C° 0.1 mm 3 m/s 747 mmHg 84%

    24 Junho, Segunda-feira

    Tempo Temperatura Precipitação Vento Pressão Humidade
    00:00 +21°C° 0 mm 3 m/s 747 mmHg 86%
    01:00 +20°C° 0 mm 3 m/s 746 mmHg 88%
    02:00 +20°C° 0 mm 2 m/s 746 mmHg 90%
    03:00 +20°C° 0 mm 3 m/s 746 mmHg 90%
    04:00 +20°C° 0 mm 3 m/s 746 mmHg 91%
    05:00 +20°C° 0 mm 3 m/s 746 mmHg 92%
    06:00 +21°C° 0 mm 3 m/s 747 mmHg 86%
    07:00 +24°C° 0 mm 3 m/s 747 mmHg 81%
    08:00 +26°C° 0 mm 3 m/s 747 mmHg 75%
    09:00 +27°C° 0.4 mm 3 m/s 747 mmHg 71%
    10:00 +28°C° 0.4 mm 4 m/s 747 mmHg 66%
    11:00 +29°C° 0.4 mm 4 m/s 747 mmHg 62%
    12:00 +30°C° 0.1 mm 4 m/s 747 mmHg 59%
    13:00 +30°C° 0.1 mm 4 m/s 747 mmHg 55%
    14:00 +32°C° 0.1 mm 4 m/s 747 mmHg 52%
    15:00 +30°C° 0.3 mm 4 m/s 747 mmHg 57%
    16:00 +29°C° 0.3 mm 3 m/s 747 mmHg 62%
    17:00 +29°C° 0.3 mm 3 m/s 747 mmHg 66%
    18:00 +27°C° 0.7 mm 3 m/s 747 mmHg 74%
    19:00 +25°C° 0.7 mm 3 m/s 747 mmHg 82%
    20:00 +22°C° 0.7 mm 3 m/s 748 mmHg 90%
    21:00 +21°C° 0.1 mm 3 m/s 748 mmHg 92%
    22:00 +20°C° 0.1 mm 4 m/s 748 mmHg 94%
    23:00 +19°C° 0.1 mm 4 m/s 749 mmHg 96%
    Mostrar mais